Location: Unspecified
(38.9820°N, 94.4650°W)
Time: 21:47:46
(UTC-06:00)

CZ-3 Stage 3 - Visible Passes

Search period start: 22 December 2014 00:00
Search period end: 01 January 2015 00:00
Orbit: 434 x 34797 km, 31.0° (Epoch: 22 December)

Date Brightness Start Highest point End Pass type
(mag) Time Alt. Az. Time Alt. Az. Time Alt. Az.
22 Dec 9.2 16:30:53 10° E 17:18:19 12° E 17:53:11 10° ENE visible
23 Dec 5.8 03:47:31 10° WNW 05:21:42 36° SW 05:29:44 10° SSE visible
23 Dec 6.5 16:50:57 10° S 01:45:57 57° ESE 01:56:20 10° ESE visible
24 Dec 7.8 15:01:28 10° ESE 20:55:42 58° ESE 21:22:18 56° ESE visible
25 Dec 9.2 16:09:40 10° E 17:12:18 14° E 17:54:54 10° ENE visible
26 Dec 5.8 03:56:30 10° WNW 05:16:46 34° SW 05:24:54 10° S visible
26 Dec 6.4 16:45:03 10° S 01:43:34 50° ESE 01:51:45 10° ESE visible
27 Dec 8.7 14:46:52 10° ESE 20:50:20 59° ESE 21:22:14 56° ESE visible
28 Dec 9.1 15:50:14 10° E 17:06:14 15° E 17:54:50 10° ENE visible
29 Dec 5.9 04:00:20 10° WNW 05:11:47 32° WSW 05:20:00 10° S visible
29 Dec 6.4 16:39:13 10° S 01:40:59 41° ESE 01:47:08 10° ESE visible
30 Dec 8.6 14:32:25 10° ESE 20:44:55 60° ESE 21:21:47 56° ESE visible
31 Dec 9.0 15:31:53 10° E 17:00:08 16° E 17:53:44 10° ENE visible
31 Dec 10.4 20:43:50 10° SW 22:29:31 20° WSW 00:00:00 17° W visible
